Weather History for KAVX - February, 2013

Change the Weather History Date:

Monday, February 25, 2013

  Actual Average Record
Temperature  
Mean Temperature 51 °F -  
Max Temperature 60 °F 54 °F 72 °F (2002)
Min Temperature 42 °F 45 °F 42 °F (2013)
Degree Days  
Heating Degree Days 14    
Growing Degree Days 1 (Base 50)    
Moisture  
Dew Point 30 °F    
Average Humidity 52    
Maximum Humidity 100    
Minimum Humidity 11    
Precipitation  
Precipitation 0.00 in - - ()
Sea Level Pressure  
Sea Level Pressure 30.14 in    
Wind  
Wind Speed 7 mph (West)    
Max Wind Speed 13 mph    
Max Gust Speed -    
Visibility 8 miles    
Events Fog    
Averages and records for this station are not official NWS values.
T = Trace of Precipitation, MM = Missing Value Source: NWS Daily Summary

Daily Weather History Graph

Daily Weather History Graph

Search for Another Location

Airport or City:

Trip Planner

Search our weather history database for the weather conditions in past years. The results will help you decide how hot, cold, wet, or windy it might be!

Date:

Astronomy

Feb. 25, 2013 Rise Set
Actual Time 6:26 AM PST 5:47 PM PST
Civil Twilight 6:01 AM PST 6:12 PM PST
Nautical Twilight 5:32 AM PST 6:41 PM PST
Astronomical Twilight 5:03 AM PST 7:10 PM PST
Moon 6:02 PM PST (2/25) 6:01 AM PST (2/25)
Length of Visible Light 12h 11m
Length of Day
11h 21m
Full, 100% of the Moon is Illuminated
Feb 25
Full
Feb 25
Full
Mar 4
Last Quarter
Mar 11
New
Mar 19
First Quarter

Hourly Weather History & Observations

Time (PST) Temp. Windchill Dew Point Humidity Pressure Visibility Wind Dir Wind Speed Gust Speed Precip Events Conditions
12:51 AM 50.0 °F - 23.0 °F 35% 30.21 in 10.0 mi WNW 11.5 mph - N/A   Clear
1:51 AM 48.9 °F - 30.9 °F 50% 30.20 in 10.0 mi WNW 6.9 mph - N/A   Clear
3:51 AM 53.1 °F - 12.0 °F 20% 30.18 in 10.0 mi Calm Calm - N/A   Clear
4:51 AM 57.0 °F - 3.0 °F 11% 30.18 in 10.0 mi Calm Calm - N/A   Clear
5:51 AM 55.9 °F - 3.0 °F 12% 30.19 in 10.0 mi Calm Calm - N/A   Clear
6:51 AM 54.0 °F - 6.1 °F 15% 30.19 in 10.0 mi South 4.6 mph - N/A   Clear
8:51 AM 57.0 °F - 16.0 °F 20% 30.20 in 10.0 mi SW 4.6 mph - N/A   Clear
9:51 AM 57.0 °F - 28.9 °F 34% 30.20 in 10.0 mi Variable 3.5 mph - N/A   Clear
10:51 AM 59.0 °F - 28.0 °F 31% 30.20 in 10.0 mi WSW 9.2 mph - N/A   Clear
11:51 AM 57.9 °F - 30.9 °F 36% 30.18 in 10.0 mi WSW 9.2 mph - N/A   Clear
12:51 PM 60.1 °F - 16.0 °F 18% 30.16 in 10.0 mi West 8.1 mph - N/A   Clear
1:51 PM 57.9 °F - 30.0 °F 35% 30.15 in 10.0 mi West 9.2 mph - N/A   Clear
2:51 PM 57.9 °F - 28.9 °F 33% 30.14 in 10.0 mi West 11.5 mph - N/A   Clear
3:51 PM 57.0 °F - 23.0 °F 27% 30.12 in 10.0 mi West 12.7 mph - N/A   Clear
4:51 PM 53.1 °F - 30.9 °F 43% 30.09 in 10.0 mi West 10.4 mph - N/A   Clear
5:51 PM 50.0 °F - 32.0 °F 50% 30.09 in 10.0 mi WSW 8.1 mph - N/A   Clear
6:51 PM 51.1 °F - 27.0 °F 39% 30.09 in 10.0 mi West 11.5 mph - N/A   Clear
7:51 PM 48.0 °F - 42.1 °F 80% 30.10 in 10.0 mi WSW 9.2 mph - N/A   Clear
8:51 PM 48.0 °F - 39.0 °F 71% 30.11 in 10.0 mi WSW 9.2 mph - N/A   Clear
9:51 PM 46.9 °F - 41.0 °F 80% 30.11 in 10.0 mi West 9.2 mph - N/A   Clear
10:25 PM 46.4 °F 42.9 °F 42.8 °F 87% 30.11 in 1.0 mi WSW 6.9 mph - N/A   Mist
10:32 PM 46.4 °F 44.3 °F 44.6 °F 93% 30.10 in 0.2 mi WSW 4.6 mph - N/A Fog Fog
10:51 PM 45.0 °F 41.8 °F 44.1 °F 97% 30.10 in 0.2 mi West 5.8 mph - N/A Fog Fog
10:56 PM 44.6 °F 41.4 °F 44.6 °F 100% 30.10 in 1.2 mi WSW 5.8 mph - N/A   Mostly Cloudy
10:59 PM 44.6 °F 41.4 °F 44.6 °F 100% 30.10 in 0.8 mi WSW 5.8 mph - N/A   Mist
11:14 PM 44.6 °F 42.2 °F 42.8 °F 93% 30.10 in 2.0 mi NNW 4.6 mph - N/A   Partly Cloudy
11:21 PM 42.8 °F 41.1 °F 39.2 °F 87% 30.10 in 10.0 mi NNE 3.5 mph - N/A   Partly Cloudy
11:51 PM 48.0 °F - 33.1 °F 56% 30.08 in 10.0 mi Calm Calm - N/A   Clear